contact:dominique.lefevre@mio.osupytheas.fr, maurice.libes@osupytheas.fr, didier.mallarino@osupytheas.fr
Project:EMSO http://www.emso-fr.org/EMSO-France
Depth: 2436.0 m
Title:EMSO Ligure Ouest : Data MII capteur CSTAR
DateTime,Latitude,Longitude,Instrument_Serial,Reference_Counts,Signal_Counts,Corrected_Signal_raw_counts,Calculated_Beam_c_inverse_meters,Internal_thermistor_counts
DateTime,Latitude,Longitude,Instrument_Serial,Reference_Counts,Signal_Counts,Corrected_Signal_raw_counts,Calculated_Beam_c_inverse_meters,Internal_thermistor_counts
2021-05-25T00:00:24,42.805,6.029,CST-1368DR,5432,7573,14962,0.171,551
2021-05-25T00:03:26,42.805,6.029,CST-1368DR,5432,7574,14962,0.171,551
2021-05-25T00:06:27,42.805,6.029,CST-1368DR,5432,7572,14960,0.172,551
2021-05-25T00:09:29,42.805,6.029,CST-1368DR,5432,7569,14953,0.174,551
2021-05-25T00:12:30,42.805,6.029,CST-1368DR,5432,7572,14960,0.172,551
2021-05-25T00:15:32,42.805,6.029,CST-1368DR,5432,7573,14960,0.172,551
2021-05-25T00:18:34,42.805,6.029,CST-1368DR,5432,7573,14961,0.171,551
2021-05-25T00:21:35,42.805,6.029,CST-1368DR,5432,7573,14961,0.171,551
2021-05-25T00:24:37,42.805,6.029,CST-1368DR,5432,7572,14960,0.172,551
2021-05-25T00:27:38,42.805,6.029,CST-1368DR,5432,7573,14960,0.172,551
2021-05-25T00:30:40,42.805,6.029,CST-1368DR,5432,7572,14958,0.172,551
2021-05-25T00:33:42,42.805,6.029,CST-1368DR,5432,7573,14960,0.172,551
2021-05-25T00:36:43,42.805,6.029,CST-1368DR,5432,7573,14961,0.171,551
2021-05-25T00:39:45,42.805,6.029,CST-1368DR,5432,7573,14961,0.171,551
2021-05-25T00:42:46,42.805,6.029,CST-1368DR,5432,7572,14959,0.172,551
2021-05-25T00:45:48,42.805,6.029,CST-1368DR,5432,7572,14960,0.172,551
2021-05-25T00:48:49,42.805,6.029,CST-1368DR,5432,7573,14960,0.172,551
2021-05-25T00:51:51,42.805,6.029,CST-1368DR,5432,7572,14960,0.172,551
2021-05-25T00:54:53,42.805,6.029,CST-1368DR,5432,7573,14962,0.171,551
2021-05-25T00:57:54,42.805,6.029,CST-1368DR,5432,7572,14959,0.172,551
2021-05-25T01:00:56,42.805,6.029,CST-1368DR,5432,7573,14962,0.171,551
2021-05-25T01:03:57,42.805,6.029,CST-1368DR,5432,7573,14962,0.171,551
2021-05-25T01:06:59,42.805,6.029,CST-1368DR,5432,7572,14959,0.172,551
2021-05-25T01:10:00,42.805,6.029,CST-1368DR,5432,7573,14960,0.172,551
2021-05-25T01:13:02,42.805,6.029,CST-1368DR,5432,7572,14959,0.172,551
2021-05-25T01:16:04,42.805,6.029,CST-1368DR,5432,7572,14958,0.172,551
2021-05-25T01:19:05,42.805,6.029,CST-1368DR,5432,7572,14958,0.172,551
2021-05-25T01:22:07,42.805,6.029,CST-1368DR,5432,7570,14955,0.173,551
2021-05-25T01:25:08,42.805,6.029,CST-1368DR,5432,7567,14950,0.174,551
2021-05-25T01:28:10,42.805,6.029,CST-1368DR,5432,7571,14958,0.172,551
2021-05-25T01:31:12,42.805,6.029,CST-1368DR,5432,7571,14957,0.172,551
2021-05-25T01:34:13,42.805,6.029,CST-1368DR,5432,7573,14961,0.171,551
2021-05-25T01:37:15,42.805,6.029,CST-1368DR,5432,7572,14960,0.172,551
2021-05-25T01:40:16,42.805,6.029,CST-1368DR,5431,7573,14963,0.171,551
2021-05-25T01:43:18,42.805,6.029,CST-1368DR,5432,7570,14955,0.173,551
2021-05-25T01:46:19,42.805,6.029,CST-1368DR,5431,7572,14963,0.171,551
2021-05-25T01:49:21,42.805,6.029,CST-1368DR,5431,7572,14963,0.171,551
2021-05-25T01:52:23,42.805,6.029,CST-1368DR,5431,7572,14961,0.171,551
2021-05-25T01:55:24,42.805,6.029,CST-1368DR,5431,7572,14962,0.171,551
2021-05-25T01:58:26,42.805,6.029,CST-1368DR,5431,7573,14964,0.171,551
2021-05-25T02:01:27,42.805,6.029,CST-1368DR,5432,7572,14959,0.172,551
2021-05-25T02:04:29,42.805,6.029,CST-1368DR,5431,7573,14963,0.171,551
2021-05-25T02:07:30,42.805,6.029,CST-1368DR,5431,7572,14963,0.171,551
2021-05-25T02:10:32,42.805,6.029,CST-1368DR,5431,7572,14961,0.171,551
2021-05-25T02:13:34,42.805,6.029,CST-1368DR,5431,7572,14961,0.171,551
2021-05-25T02:16:35,42.805,6.029,CST-1368DR,5431,7571,14960,0.172,551
2021-05-25T02:19:37,42.805,6.029,CST-1368DR,5431,7572,14962,0.171,551
2021-05-25T02:22:38,42.805,6.029,CST-1368DR,5431,7573,14964,0.171,551
2021-05-25T02:25:40,42.805,6.029,CST-1368DR,5431,7573,14964,0.171,551
2021-05-25T02:28:42,42.805,6.029,CST-1368DR,5431,7572,14962,0.171,551
2021-05-25T02:31:43,42.805,6.029,CST-1368DR,5431,7572,14961,0.171,551
2021-05-25T02:34:45,42.805,6.029,CST-1368DR,5431,7573,14964,0.171,550
2021-05-25T02:37:46,42.805,6.029,CST-1368DR,5431,7573,14964,0.171,551
2021-05-25T02:40:48,42.805,6.029,CST-1368DR,5431,7572,14962,0.171,551
2021-05-25T02:43:49,42.805,6.029,CST-1368DR,5431,7573,14963,0.171,551
2021-05-25T02:46:51,42.805,6.029,CST-1368DR,5431,7572,14962,0.171,551
2021-05-25T02:49:53,42.805,6.029,CST-1368DR,5431,7572,14962,0.171,551
2021-05-25T02:52:54,42.805,6.029,CST-1368DR,5431,7573,14964,0.171,551
2021-05-25T02:55:56,42.805,6.029,CST-1368DR,5431,7573,14963,0.171,551
2021-05-25T02:58:57,42.805,6.029,CST-1368DR,5431,7572,14963,0.171,551
2021-05-25T03:01:59,42.805,6.029,CST-1368DR,5431,7572,14963,0.171,551
2021-05-25T03:05:01,42.805,6.029,CST-1368DR,5431,7570,14958,0.172,551
2021-05-25T03:08:02,42.805,6.029,CST-1368DR,5431,7573,14964,0.171,551
2021-05-25T03:11:04,42.805,6.029,CST-1368DR,5431,7573,14964,0.171,551
2021-05-25T03:14:05,42.805,6.029,CST-1368DR,5431,7572,14962,0.171,551
2021-05-25T03:17:07,42.805,6.029,CST-1368DR,5431,7573,14963,0.171,551
2021-05-25T03:20:08,42.805,6.029,CST-1368DR,5431,7572,14963,0.171,551
2021-05-25T03:23:10,42.805,6.029,CST-1368DR,5431,7571,14961,0.171,551
2021-05-25T03:26:12,42.805,6.029,CST-1368DR,5431,7573,14963,0.171,551
2021-05-25T03:29:13,42.805,6.029,CST-1368DR,5431,7572,14963,0.171,551
2021-05-25T03:32:15,42.805,6.029,CST-1368DR,5431,7573,14964,0.171,551
2021-05-25T03:35:16,42.805,6.029,CST-1368DR,5431,7573,14963,0.171,551
2021-05-25T03:38:18,42.805,6.029,CST-1368DR,5431,7573,14964,0.171,551
2021-05-25T03:41:19,42.805,6.029,CST-1368DR,5431,7571,14961,0.171,551
2021-05-25T03:44:21,42.805,6.029,CST-1368DR,5431,7573,14963,0.171,551
2021-05-25T03:47:23,42.805,6.029,CST-1368DR,5431,7573,14964,0.171,551
2021-05-25T03:50:24,42.805,6.029,CST-1368DR,5431,7573,14964,0.171,551
2021-05-25T03:53:26,42.805,6.029,CST-1368DR,5431,7573,14964,0.171,551
2021-05-25T03:56:27,42.805,6.029,CST-1368DR,5431,7572,14963,0.171,551
2021-05-25T03:59:29,42.805,6.029,CST-1368DR,5431,7571,14960,0.172,551
2021-05-25T04:02:31,42.805,6.029,CST-1368DR,5431,7572,14962,0.171,551
2021-05-25T04:05:32,42.805,6.029,CST-1368DR,5431,7572,14963,0.171,551
2021-05-25T04:08:34,42.805,6.029,CST-1368DR,5431,7571,14961,0.171,551
2021-05-25T04:11:35,42.805,6.029,CST-1368DR,5431,7572,14962,0.171,551
2021-05-25T04:14:37,42.805,6.029,CST-1368DR,5431,7573,14963,0.171,551
2021-05-25T04:17:38,42.805,6.029,CST-1368DR,5431,7572,14962,0.171,551
2021-05-25T04:20:40,42.805,6.029,CST-1368DR,5431,7573,14963,0.171,551
2021-05-25T04:23:42,42.805,6.029,CST-1368DR,5431,7572,14963,0.171,551
2021-05-25T04:26:43,42.805,6.029,CST-1368DR,5431,7574,14965,0.170,551
2021-05-25T04:29:45,42.805,6.029,CST-1368DR,5431,7572,14962,0.171,551
2021-05-25T04:32:46,42.805,6.029,CST-1368DR,5431,7572,14961,0.171,551
2021-05-25T04:35:48,42.805,6.029,CST-1368DR,5431,7573,14963,0.171,551
2021-05-25T04:38:50,42.805,6.029,CST-1368DR,5431,7573,14963,0.171,551
2021-05-25T04:41:51,42.805,6.029,CST-1368DR,5431,7571,14960,0.172,551
2021-05-25T04:44:53,42.805,6.029,CST-1368DR,5431,7573,14964,0.171,551
2021-05-25T04:47:54,42.805,6.029,CST-1368DR,5431,7573,14964,0.171,551
2021-05-25T04:50:56,42.805,6.029,CST-1368DR,5431,7572,14962,0.171,551
2021-05-25T04:53:57,42.805,6.029,CST-1368DR,5431,7572,14962,0.171,551
2021-05-25T04:56:59,42.805,6.029,CST-1368DR,5431,7573,14963,0.171,551
2021-05-25T05:00:01,42.805,6.029,CST-1368DR,5431,7573,14963,0.171,551
2021-05-25T05:03:02,42.805,6.029,CST-1368DR,5431,7572,14962,0.171,551
2021-05-25T05:06:04,42.805,6.029,CST-1368DR,5431,7572,14961,0.171,551
2021-05-25T05:09:05,42.805,6.029,CST-1368DR,5431,7573,14963,0.171,551
2021-05-25T05:12:07,42.805,6.029,CST-1368DR,5431,7571,14961,0.171,551
2021-05-25T05:15:08,42.805,6.029,CST-1368DR,5431,7572,14962,0.171,551
2021-05-25T05:18:10,42.805,6.029,CST-1368DR,5431,7570,14958,0.172,551
2021-05-25T05:21:12,42.805,6.029,CST-1368DR,5431,7569,14955,0.173,551
2021-05-25T05:24:13,42.805,6.029,CST-1368DR,5431,7572,14962,0.171,551
2021-05-25T05:27:15,42.805,6.029,CST-1368DR,5431,7572,14962,0.171,551
2021-05-25T05:30:16,42.805,6.029,CST-1368DR,5431,7572,14962,0.171,551
2021-05-25T05:33:18,42.805,6.029,CST-1368DR,5431,7571,14959,0.172,551
2021-05-25T05:36:20,42.805,6.029,CST-1368DR,5431,7571,14959,0.172,551
2021-05-25T05:39:21,42.805,6.029,CST-1368DR,5431,7573,14963,0.171,551
2021-05-25T05:42:23,42.805,6.029,CST-1368DR,5431,7571,14961,0.171,551
2021-05-25T05:45:24,42.805,6.029,CST-1368DR,5431,7572,14962,0.171,551
2021-05-25T05:48:26,42.805,6.029,CST-1368DR,5431,7572,14963,0.171,551
2021-05-25T05:51:27,42.805,6.029,CST-1368DR,5431,7572,14962,0.171,551
2021-05-25T05:54:29,42.805,6.029,CST-1368DR,5431,7571,14961,0.171,551
2021-05-25T05:57:31,42.805,6.029,CST-1368DR,5431,7570,14958,0.172,551
2021-05-25T06:00:32,42.805,6.029,CST-1368DR,5431,7571,14960,0.172,551
2021-05-25T06:03:34,42.805,6.029,CST-1368DR,5431,7568,14954,0.173,551
2021-05-25T06:06:35,42.805,6.029,CST-1368DR,5431,7569,14957,0.172,551
2021-05-25T06:09:37,42.805,6.029,CST-1368DR,5431,7572,14961,0.171,551
2021-05-25T06:12:38,42.805,6.029,CST-1368DR,5431,7572,14962,0.171,551
2021-05-25T06:15:40,42.805,6.029,CST-1368DR,5431,7572,14962,0.171,551
2021-05-25T06:18:42,42.805,6.029,CST-1368DR,5431,7571,14960,0.172,551
2021-05-25T06:21:43,42.805,6.029,CST-1368DR,5431,7571,14961,0.171,551
2021-05-25T06:24:45,42.805,6.029,CST-1368DR,5431,7572,14962,0.171,551
2021-05-25T06:27:46,42.805,6.029,CST-1368DR,5431,7570,14958,0.172,551
2021-05-25T06:30:48,42.805,6.029,CST-1368DR,5431,7570,14958,0.172,551
2021-05-25T06:33:50,42.805,6.029,CST-1368DR,5431,7571,14959,0.172,551
2021-05-25T06:36:51,42.805,6.029,CST-1368DR,5431,7559,14935,0.178,551
2021-05-25T06:39:53,42.805,6.029,CST-1368DR,5431,7571,14961,0.171,551
2021-05-25T06:42:54,42.805,6.029,CST-1368DR,5431,7572,14961,0.171,551
2021-05-25T06:45:56,42.805,6.029,CST-1368DR,5431,7570,14959,0.172,551
2021-05-25T06:48:57,42.805,6.029,CST-1368DR,5431,7571,14960,0.172,551
2021-05-25T06:51:59,42.805,6.029,CST-1368DR,5431,7572,14962,0.171,551
2021-05-25T06:55:01,42.805,6.029,CST-1368DR,5431,7572,14962,0.171,551
2021-05-25T06:58:02,42.805,6.029,CST-1368DR,5431,7570,14958,0.172,551
2021-05-25T07:01:04,42.805,6.029,CST-1368DR,5431,7572,14961,0.171,551
2021-05-25T07:04:05,42.805,6.029,CST-1368DR,5431,7571,14961,0.171,551
2021-05-25T07:07:07,42.805,6.029,CST-1368DR,5431,7572,14961,0.171,551
2021-05-25T07:10:09,42.805,6.029,CST-1368DR,5431,7572,14962,0.171,551
2021-05-25T07:13:10,42.805,6.029,CST-1368DR,5431,7572,14961,0.171,551
2021-05-25T07:16:12,42.805,6.029,CST-1368DR,5431,7572,14962,0.171,551
2021-05-25T07:19:13,42.805,6.029,CST-1368DR,5431,7572,14962,0.171,551
2021-05-25T07:22:15,42.805,6.029,CST-1368DR,5431,7572,14962,0.171,551
2021-05-25T07:25:16,42.805,6.029,CST-1368DR,5431,7572,14962,0.171,551
2021-05-25T07:28:18,42.805,6.029,CST-1368DR,5431,7572,14963,0.171,551
2021-05-25T07:31:20,42.805,6.029,CST-1368DR,5431,7572,14962,0.171,551
2021-05-25T07:34:21,42.805,6.029,CST-1368DR,5431,7572,14961,0.171,551
2021-05-25T07:37:23,42.805,6.029,CST-1368DR,5431,7569,14956,0.173,550
2021-05-25T07:40:24,42.805,6.029,CST-1368DR,5431,7571,14961,0.171,551
2021-05-25T07:43:26,42.805,6.029,CST-1368DR,5431,7571,14960,0.172,551
2021-05-25T07:46:27,42.805,6.029,CST-1368DR,5431,7572,14962,0.171,551
2021-05-25T07:49:29,42.805,6.029,CST-1368DR,5431,7571,14961,0.171,551
2021-05-25T07:52:31,42.805,6.029,CST-1368DR,5431,7571,14961,0.171,551
2021-05-25T07:55:32,42.805,6.029,CST-1368DR,5431,7572,14961,0.171,551
2021-05-25T07:58:34,42.805,6.029,CST-1368DR,5431,7571,14961,0.171,551
2021-05-25T08:01:35,42.805,6.029,CST-1368DR,5431,7570,14959,0.172,551
2021-05-25T08:04:37,42.805,6.029,CST-1368DR,5431,7572,14963,0.171,551
2021-05-25T08:07:39,42.805,6.029,CST-1368DR,5431,7571,14961,0.171,551
2021-05-25T08:10:40,42.805,6.029,CST-1368DR,5431,7572,14961,0.171,551
2021-05-25T08:13:42,42.805,6.029,CST-1368DR,5431,7572,14963,0.171,551
2021-05-25T08:16:43,42.805,6.029,CST-1368DR,5431,7572,14962,0.171,551
2021-05-25T08:19:45,42.805,6.029,CST-1368DR,5431,7572,14962,0.171,551
2021-05-25T08:22:46,42.805,6.029,CST-1368DR,5431,7571,14959,0.172,551
2021-05-25T08:25:48,42.805,6.029,CST-1368DR,5431,7572,14961,0.171,551
2021-05-25T08:28:50,42.805,6.029,CST-1368DR,5431,7571,14961,0.171,551
2021-05-25T08:31:51,42.805,6.029,CST-1368DR,5431,7571,14960,0.172,551
2021-05-25T08:34:53,42.805,6.029,CST-1368DR,5431,7572,14962,0.171,551
2021-05-25T08:37:54,42.805,6.029,CST-1368DR,5431,7572,14962,0.171,551
2021-05-25T08:40:56,42.805,6.029,CST-1368DR,5431,7571,14961,0.171,551
2021-05-25T08:43:58,42.805,6.029,CST-1368DR,5431,7571,14961,0.171,551
2021-05-25T08:46:59,42.805,6.029,CST-1368DR,5431,7572,14961,0.171,551
2021-05-25T08:50:01,42.805,6.029,CST-1368DR,5431,7572,14962,0.171,551
2021-05-25T08:53:02,42.805,6.029,CST-1368DR,5431,7572,14962,0.171,551
2021-05-25T08:56:04,42.805,6.029,CST-1368DR,5431,7572,14962,0.171,551
2021-05-25T08:59:05,42.805,6.029,CST-1368DR,5431,7571,14960,0.172,551
2021-05-25T09:02:07,42.805,6.029,CST-1368DR,5431,7564,14947,0.175,551
2021-05-25T09:05:09,42.805,6.029,CST-1368DR,5431,7572,14962,0.171,551
2021-05-25T09:08:10,42.805,6.029,CST-1368DR,5431,7572,14962,0.171,551
2021-05-25T09:11:12,42.805,6.029,CST-1368DR,5431,7572,14962,0.171,551
2021-05-25T09:14:13,42.805,6.029,CST-1368DR,5431,7571,14960,0.172,551
2021-05-25T09:17:15,42.805,6.029,CST-1368DR,5431,7572,14962,0.171,551
2021-05-25T09:20:17,42.805,6.029,CST-1368DR,5431,7571,14960,0.172,551
2021-05-25T09:23:18,42.805,6.029,CST-1368DR,5431,7572,14962,0.171,551
2021-05-25T09:26:20,42.805,6.029,CST-1368DR,5431,7572,14961,0.171,551
2021-05-25T09:29:21,42.805,6.029,CST-1368DR,5431,7571,14960,0.172,551
2021-05-25T09:32:23,42.805,6.029,CST-1368DR,5431,7571,14961,0.171,551
2021-05-25T09:35:24,42.805,6.029,CST-1368DR,5431,7572,14961,0.171,551
2021-05-25T09:38:26,42.805,6.029,CST-1368DR,5431,7569,14957,0.172,551
2021-05-25T09:41:28,42.805,6.029,CST-1368DR,5431,7571,14961,0.171,551
2021-05-25T09:44:29,42.805,6.029,CST-1368DR,5431,7571,14961,0.171,551
2021-05-25T09:47:31,42.805,6.029,CST-1368DR,5431,7572,14962,0.171,551
2021-05-25T09:50:32,42.805,6.029,CST-1368DR,5431,7571,14960,0.172,551
2021-05-25T09:53:34,42.805,6.029,CST-1368DR,5431,7571,14960,0.172,551
2021-05-25T09:56:35,42.805,6.029,CST-1368DR,5431,7571,14961,0.171,551
2021-05-25T09:59:37,42.805,6.029,CST-1368DR,5431,7571,14960,0.172,551
2021-05-25T10:02:39,42.805,6.029,CST-1368DR,5431,7572,14961,0.171,551
2021-05-25T10:05:40,42.805,6.029,CST-1368DR,5431,7572,14961,0.171,550
2021-05-25T10:08:42,42.805,6.029,CST-1368DR,5431,7572,14961,0.171,551
2021-05-25T10:11:43,42.805,6.029,CST-1368DR,5431,7572,14961,0.171,551
2021-05-25T10:14:45,42.805,6.029,CST-1368DR,5431,7571,14959,0.172,551
2021-05-25T10:17:47,42.805,6.029,CST-1368DR,5431,7570,14959,0.172,551
2021-05-25T10:20:48,42.805,6.029,CST-1368DR,5431,7570,14958,0.172,551
2021-05-25T10:23:50,42.805,6.029,CST-1368DR,5431,7571,14960,0.172,550
2021-05-25T10:26:51,42.805,6.029,CST-1368DR,5431,7568,14955,0.173,551
2021-05-25T10:29:53,42.805,6.029,CST-1368DR,5431,7571,14960,0.172,551
2021-05-25T10:32:54,42.805,6.029,CST-1368DR,5431,7571,14960,0.172,551
2021-05-25T10:35:56,42.805,6.029,CST-1368DR,5431,7572,14961,0.171,551
2021-05-25T10:38:58,42.805,6.029,CST-1368DR,5431,7570,14959,0.172,551
2021-05-25T10:41:59,42.805,6.029,CST-1368DR,5431,7570,14959,0.172,551
2021-05-25T10:45:01,42.805,6.029,CST-1368DR,5431,7571,14959,0.172,551
2021-05-25T10:48:02,42.805,6.029,CST-1368DR,5431,7571,14960,0.172,551
2021-05-25T10:51:04,42.805,6.029,CST-1368DR,5431,7571,14959,0.172,551
2021-05-25T10:54:06,42.805,6.029,CST-1368DR,5431,7570,14958,0.172,551
2021-05-25T10:57:07,42.805,6.029,CST-1368DR,5431,7571,14959,0.172,551
2021-05-25T11:00:09,42.805,6.029,CST-1368DR,5431,7571,14961,0.171,551
2021-05-25T11:03:10,42.805,6.029,CST-1368DR,5431,7572,14961,0.171,551
2021-05-25T11:06:12,42.805,6.029,CST-1368DR,5431,7570,14959,0.172,551
2021-05-25T11:09:13,42.805,6.029,CST-1368DR,5431,7571,14960,0.172,551
2021-05-25T11:12:15,42.805,6.029,CST-1368DR,5431,7571,14960,0.172,551
2021-05-25T11:15:17,42.805,6.029,CST-1368DR,5431,7570,14959,0.172,551
2021-05-25T11:18:18,42.805,6.029,CST-1368DR,5431,7570,14958,0.172,551
2021-05-25T11:21:20,42.805,6.029,CST-1368DR,5431,7570,14959,0.172,551
2021-05-25T11:24:21,42.805,6.029,CST-1368DR,5431,7570,14958,0.172,551
2021-05-25T11:27:23,42.805,6.029,CST-1368DR,5430,7568,14956,0.173,551
2021-05-25T11:30:25,42.805,6.029,CST-1368DR,5431,7571,14959,0.172,551
2021-05-25T11:33:26,42.805,6.029,CST-1368DR,5431,7569,14957,0.172,551
2021-05-25T11:36:28,42.805,6.029,CST-1368DR,5430,7569,14959,0.172,551
2021-05-25T11:39:29,42.805,6.029,CST-1368DR,5431,7568,14954,0.173,551
2021-05-25T11:42:31,42.805,6.029,CST-1368DR,5431,7569,14956,0.173,551
2021-05-25T11:45:32,42.805,6.029,CST-1368DR,5431,7569,14956,0.173,551
2021-05-25T11:48:34,42.805,6.029,CST-1368DR,5431,7569,14957,0.172,551
2021-05-25T11:51:36,42.805,6.029,CST-1368DR,5430,7569,14959,0.172,551
2021-05-25T11:54:37,42.805,6.029,CST-1368DR,5431,7569,14955,0.173,551
2021-05-25T11:57:39,42.805,6.029,CST-1368DR,5431,7569,14956,0.173,551
2021-05-25T12:00:40,42.805,6.029,CST-1368DR,5431,7569,14956,0.173,551
2021-05-25T12:03:42,42.805,6.029,CST-1368DR,5431,7568,14954,0.173,551
2021-05-25T12:06:43,42.805,6.029,CST-1368DR,5430,7568,14956,0.173,551
2021-05-25T12:09:45,42.805,6.029,CST-1368DR,5430,7568,14957,0.172,551
2021-05-25T12:12:47,42.805,6.029,CST-1368DR,5430,7569,14958,0.172,551
2021-05-25T12:15:48,42.805,6.029,CST-1368DR,5430,7568,14957,0.172,551
2021-05-25T12:18:50,42.805,6.029,CST-1368DR,5430,7569,14958,0.172,551
2021-05-25T12:21:51,42.805,6.029,CST-1368DR,5430,7568,14957,0.172,551
2021-05-25T12:24:53,42.805,6.029,CST-1368DR,5430,7568,14957,0.172,551
2021-05-25T12:27:55,42.805,6.029,CST-1368DR,5430,7569,14958,0.172,551
2021-05-25T12:30:56,42.805,6.029,CST-1368DR,5430,7569,14959,0.172,551
2021-05-25T12:33:58,42.805,6.029,CST-1368DR,5430,7568,14957,0.172,551
2021-05-25T12:36:59,42.805,6.029,CST-1368DR,5430,7568,14957,0.172,551
2021-05-25T12:40:01,42.805,6.029,CST-1368DR,5430,7567,14955,0.173,551
2021-05-25T12:43:02,42.805,6.029,CST-1368DR,5430,7567,14955,0.173,551
2021-05-25T12:46:04,42.805,6.029,CST-1368DR,5430,7566,14952,0.174,551
2021-05-25T12:49:06,42.805,6.029,CST-1368DR,5430,7567,14955,0.173,551
2021-05-25T12:52:07,42.805,6.029,CST-1368DR,5430,7567,14955,0.173,551
2021-05-25T12:55:09,42.805,6.029,CST-1368DR,5430,7568,14956,0.173,551
2021-05-25T12:58:10,42.805,6.029,CST-1368DR,5430,7568,14957,0.172,551
2021-05-25T13:01:12,42.805,6.029,CST-1368DR,5430,7567,14955,0.173,551
2021-05-25T13:04:14,42.805,6.029,CST-1368DR,5430,7567,14955,0.173,551
2021-05-25T13:07:15,42.805,6.029,CST-1368DR,5430,7567,14955,0.173,551
2021-05-25T13:10:17,42.805,6.029,CST-1368DR,5430,7567,14955,0.173,551
2021-05-25T13:13:18,42.805,6.029,CST-1368DR,5430,7567,14955,0.173,551
2021-05-25T13:16:20,42.805,6.029,CST-1368DR,5430,7566,14952,0.174,551
2021-05-25T13:19:21,42.805,6.029,CST-1368DR,5430,7567,14954,0.173,551
2021-05-25T13:22:23,42.805,6.029,CST-1368DR,5430,7568,14956,0.173,551
2021-05-25T13:25:25,42.805,6.029,CST-1368DR,5430,7567,14955,0.173,551
2021-05-25T13:28:26,42.805,6.029,CST-1368DR,5430,7567,14955,0.173,551
2021-05-25T13:31:28,42.805,6.029,CST-1368DR,5430,7566,14952,0.174,551
2021-05-25T13:34:29,42.805,6.029,CST-1368DR,5430,7568,14956,0.173,551
2021-05-25T13:37:31,42.805,6.029,CST-1368DR,5430,7567,14955,0.173,551
2021-05-25T13:40:32,42.805,6.029,CST-1368DR,5430,7568,14956,0.173,551
2021-05-25T13:43:34,42.805,6.029,CST-1368DR,5430,7568,14956,0.173,551
2021-05-25T13:46:36,42.805,6.029,CST-1368DR,5430,7566,14952,0.174,551
2021-05-25T13:49:37,42.805,6.029,CST-1368DR,5430,7568,14957,0.172,551
2021-05-25T13:52:39,42.805,6.029,CST-1368DR,5430,7567,14955,0.173,551
2021-05-25T13:55:40,42.805,6.029,CST-1368DR,5430,7567,14955,0.173,551
2021-05-25T13:58:42,42.805,6.029,CST-1368DR,5430,7565,14951,0.174,551
2021-05-25T14:01:44,42.805,6.029,CST-1368DR,5430,7565,14951,0.174,551
2021-05-25T14:04:45,42.805,6.029,CST-1368DR,5430,7567,14954,0.173,551
2021-05-25T14:07:47,42.805,6.029,CST-1368DR,5430,7567,14955,0.173,551
2021-05-25T14:10:48,42.805,6.029,CST-1368DR,5430,7567,14955,0.173,551
2021-05-25T14:13:50,42.805,6.029,CST-1368DR,5430,7567,14954,0.173,551
2021-05-25T14:16:51,42.805,6.029,CST-1368DR,5430,7567,14955,0.173,551
2021-05-25T14:19:53,42.805,6.029,CST-1368DR,5430,7568,14956,0.173,551
2021-05-25T14:22:55,42.805,6.029,CST-1368DR,5430,7565,14950,0.174,551
2021-05-25T14:25:56,42.805,6.029,CST-1368DR,5430,7567,14955,0.173,551
2021-05-25T14:28:58,42.805,6.029,CST-1368DR,5430,7567,14955,0.173,551
2021-05-25T14:31:59,42.805,6.029,CST-1368DR,5430,7567,14954,0.173,551
2021-05-25T14:35:01,42.805,6.029,CST-1368DR,5430,7565,14951,0.174,551
2021-05-25T14:38:03,42.805,6.029,CST-1368DR,5430,7568,14956,0.173,551
2021-05-25T14:41:04,42.805,6.029,CST-1368DR,5430,7567,14954,0.173,551
2021-05-25T14:44:06,42.805,6.029,CST-1368DR,5430,7567,14955,0.173,551
2021-05-25T14:47:07,42.805,6.029,CST-1368DR,5430,7567,14954,0.173,551
2021-05-25T14:50:09,42.805,6.029,CST-1368DR,5430,7568,14956,0.173,551
2021-05-25T14:53:10,42.805,6.029,CST-1368DR,5430,7568,14956,0.173,551
2021-05-25T14:56:12,42.805,6.029,CST-1368DR,5431,7568,14953,0.174,551
2021-05-25T14:59:14,42.805,6.029,CST-1368DR,5430,7566,14952,0.174,551
2021-05-25T15:02:15,42.805,6.029,CST-1368DR,5431,7568,14955,0.173,551
2021-05-25T15:05:17,42.805,6.029,CST-1368DR,5431,7567,14953,0.174,551
2021-05-25T15:08:18,42.805,6.029,CST-1368DR,5431,7568,14954,0.173,551
2021-05-25T15:11:20,42.805,6.029,CST-1368DR,5431,7567,14953,0.174,551
2021-05-25T15:14:21,42.805,6.029,CST-1368DR,5430,7567,14955,0.173,551
2021-05-25T15:17:23,42.805,6.029,CST-1368DR,5430,7567,14955,0.173,551
2021-05-25T15:20:25,42.805,6.029,CST-1368DR,5430,7568,14956,0.173,551
2021-05-25T15:23:26,42.805,6.029,CST-1368DR,5430,7567,14955,0.173,551
2021-05-25T15:26:28,42.805,6.029,CST-1368DR,5430,7567,14955,0.173,551
2021-05-25T15:29:29,42.805,6.029,CST-1368DR,5430,7566,14953,0.174,551
2021-05-25T15:32:31,42.805,6.029,CST-1368DR,5430,7567,14955,0.173,551
2021-05-25T15:35:33,42.805,6.029,CST-1368DR,5431,7567,14951,0.174,551
2021-05-25T15:38:34,42.805,6.029,CST-1368DR,5430,7567,14955,0.173,551
2021-05-25T15:41:36,42.805,6.029,CST-1368DR,5431,7568,14953,0.174,551
2021-05-25T15:44:37,42.805,6.029,CST-1368DR,5430,7567,14954,0.173,551
2021-05-25T15:47:39,42.805,6.029,CST-1368DR,5430,7567,14955,0.173,551
2021-05-25T15:50:40,42.805,6.029,CST-1368DR,5430,7566,14952,0.174,551
2021-05-25T15:53:42,42.805,6.029,CST-1368DR,5431,7567,14953,0.174,551
2021-05-25T15:56:44,42.805,6.029,CST-1368DR,5430,7567,14955,0.173,551
2021-05-25T15:59:45,42.805,6.029,CST-1368DR,5430,7567,14954,0.173,551
2021-05-25T16:02:47,42.805,6.029,CST-1368DR,5431,7567,14953,0.174,551
2021-05-25T16:05:48,42.805,6.029,CST-1368DR,5431,7566,14951,0.174,551
2021-05-25T16:08:50,42.805,6.029,CST-1368DR,5431,7568,14954,0.173,551
2021-05-25T16:11:51,42.805,6.029,CST-1368DR,5431,7567,14952,0.174,551
2021-05-25T16:14:53,42.805,6.029,CST-1368DR,5431,7567,14953,0.174,551
2021-05-25T16:17:55,42.805,6.029,CST-1368DR,5431,7568,14954,0.173,551
2021-05-25T16:20:56,42.805,6.029,CST-1368DR,5431,7568,14953,0.174,551
2021-05-25T16:23:58,42.805,6.029,CST-1368DR,5431,7565,14949,0.175,551
2021-05-25T16:26:59,42.805,6.029,CST-1368DR,5431,7567,14953,0.174,551
2021-05-25T16:30:01,42.805,6.029,CST-1368DR,5431,7566,14950,0.174,551
2021-05-25T16:33:03,42.805,6.029,CST-1368DR,5431,7567,14953,0.174,551
2021-05-25T16:36:04,42.805,6.029,CST-1368DR,5431,7568,14954,0.173,551
2021-05-25T16:39:06,42.805,6.029,CST-1368DR,5431,7566,14950,0.174,551
2021-05-25T16:42:07,42.805,6.029,CST-1368DR,5431,7568,14953,0.174,551
2021-05-25T16:45:09,42.805,6.029,CST-1368DR,5431,7568,14954,0.173,551
2021-05-25T16:48:10,42.805,6.029,CST-1368DR,5431,7568,14954,0.173,551
2021-05-25T16:51:12,42.805,6.029,CST-1368DR,5431,7568,14953,0.174,551